Theta_e
316 316 316 317 317 318 320 319 320 327 329 331 334 334 336 333 329 328 327 324 320 326 336 340 340 340 338 338 338 337 335 336 336 337 337 335 335 334 336 334 333 330 323
312 312 315 315 315 318 319 317 318 322 326 328 330 331 331 330 327 327 322 323 321 321 334 335 339 338 340 339 338 338 337 338 338 336 336 336 335 332 332 332 332 329 326
309 309 310 312 313 314 317 319 316 321 323 324 323 326 328 328 326 325 324 323 324 324 330 332 337 339 340 340 340 338 338 337 337 336 336 335 331 330 330 333 334 332 332
307 307 307 308 309 311 312 312 317 318 321 324 321 325 326 326 324 320 320 321 322 329 334 336 337 340 339 336 337 337 336 335 334 333 330 328 326 322 325 333 332 331 332
306 306 306 306 308 308 309 310 311 314 320 321 324 322 323 321 323 320 320 324 328 330 334 337 337 338 335 333 335 333 331 329 328 326 323 321 319 317 318 323 330 331 331
305 305 304 304 305 305 306 308 309 310 314 320 320 322 320 319 321 320 323 324 327 333 335 336 330 327 324 324 322 322 321 320 320 322 321 320 316 319 321 332 334 334 327
304 304 303 304 304 304 306 306 308 309 310 318 321 321 322 321 319 324 324 324 333 334 329 322 319 318 318 320 322 322 322 323 320 316 316 317 319 323 327 328 330 332 334
302 303 302 301 302 304 305 304 307 308 309 312 319 319 322 319 320 324 329 331 333 327 323 319 321 323 323 325 326 326 325 324 325 325 326 324 324 327 329 330 331 332 332
300 300 301 301 302 303 304 305 305 305 308 311 317 318 320 318 316 317 330 329 323 320 319 319 323 321 320 321 321 321 323 324 323 326 324 325 322 319 317 321 330 331 328
299 299 300 300 300 300 301 302 304 305 308 310 313 318 318 320 318 320 326 323 322 321 320 320 321 320 321 320 318 319 322 323 326 327 325 324 323 318 317 324 330 331 329
299 299 300 300 300 300 300 301 304 305 307 309 312 317 320 319 321 317 324 322 322 322 322 322 321 322 319 317 318 319 320 321 323 324 324 321 319 320 322 330 331 329 329
299 300 300 301 301 301 300 300 301 304 305 308 309 315 319 320 320 319 320 322 321 321 321 322 321 320 320 319 317 316 318 320 322 321 319 319 320 322 329 332 333 332 331
300 301 302 302 302 301 300 300 301 303 305 307 309 312 318 320 320 322 316 320 322 320 319 319 321 318 316 316 315 313 314 315 315 317 317 319 323 325 331 331 331 330 330
301 303 304 304 303 302 300 300 300 302 305 306 309 311 315 319 318 320 320 315 313 319 319 320 317 316 315 315 314 314 314 314 314 314 318 322 326 323 330 331 331 329 330
303 304 305 302 301 301 300 300 300 301 303 305 307 307 306 314 318 318 320 317 317 311 315 315 314 314 315 315 315 315 317 318 318 317 320 323 325 328 331 331 330 330 329
302 305 302 301 300 300 300 300 299 300 302 304 306 308 307 309 314 319 317 316 318 319 312 314 314 314 314 314 315 316 318 319 320 319 323 326 324 329 331 330 330 329 329
301 305 302 301 301 300 300 300 301 300 301 304 307 307 308 307 310 319 318 318 318 318 312 313 313 313 314 314 316 318 318 317 317 321 325 324 326 332 331 330 329 329 329
302 307 303 301 301 301 300 300 301 302 302 302 305 306 308 307 309 318 320 318 313 312 312 312 313 314 315 315 318 318 315 315 319 324 325 325 325 331 330 330 329 329 329
303 307 305 304 303 302 302 302 303 303 304 303 304 305 306 307 311 316 318 316 315 315 315 314 314 314 315 318 316 315 314 314 318 324 326 325 324 330 330 329 329 329 329
301 308 308 306 306 304 304 304 304 304 305 305 305 307 306 307 309 309 312 317 316 317 317 315 316 316 317 317 316 315 314 315 317 323 324 326 325 325 329 329 329 329 329
302 308 311 308 307 306 304 304 305 306 305 306 308 308 308 310 310 310 312 318 316 315 315 316 316 317 316 315 314 314 314 314 317 323 326 326 326 327 330 329 328 327 321
300 302 306 310 311 309 307 307 308 307 307 306 308 309 309 310 311 312 312 314 316 316 317 317 316 316 315 314 315 315 316 316 324 326 327 326 328 329 329 328 326 322 320
295 297 300 303 304 306 311 309 306 307 307 307 307 307 308 308 309 310 311 313 314 314 315 316 315 315 315 315 315 317 320 318 323 323 326 327 330 329 328 327 324 324 322
291 293 295 297 298 301 306 311 310 307 306 307 307 308 307 307 308 309 310 312 312 313 314 314 314 313 313 313 312 315 323 326 327 325 324 329 329 328 327 326 325 323 322
289 290 291 293 294 296 299 302 310 311 307 307 308 307 308 308 308 309 309 310 312 312 312 313 313 313 312 312 311 313 321 322 322 323 326 328 328 328 327 327 326 323 321
288 288 289 289 291 292 294 296 297 300 309 311 309 308 310 311 311 310 309 311 310 311 313 313 312 312 312 314 315 316 323 323 322 325 328 328 327 328 327 326 324 321 319
Wind_Speed
15 18 20 20 21 24 25 31 33 35 34 30 30 28 28 26 10 7 12 11 22 40 47 28 29 28 24 20 18 18 20 20 8 11 20 22 15 11 11 17 18 17 14
29 32 29 23 22 22 24 25 32 29 25 25 23 26 30 27 26 23 16 17 18 46 24 16 23 24 24 24 22 24 24 23 19 10 22 20 13 13 14 16 18 15 14
30 29 31 31 30 28 29 29 25 31 28 23 25 29 31 30 31 26 23 17 19 7 23 28 29 27 26 27 27 23 20 24 21 18 19 16 10 10 18 19 17 14 16
32 32 31 31 30 28 31 34 30 28 22 19 21 23 20 22 29 28 33 37 40 38 34 33 34 30 26 21 20 16 13 13 9 10 12 8 3 6 12 11 13 14 15
32 31 31 32 32 32 31 31 35 30 25 23 20 22 30 30 36 37 38 26 25 31 30 29 26 22 19 17 17 16 12 10 9 4 1 4 11 14 9 8 12 14 17
33 32 31 32 33 34 33 31 31 35 29 26 22 10 26 32 42 43 42 46 39 34 30 23 24 24 21 17 13 9 9 10 8 6 7 9 17 16 11 8 7 10 2
32 32 32 31 32 32 29 27 30 30 33 26 21 24 21 55 36 40 39 36 34 36 37 32 26 19 15 14 11 9 8 6 4 4 7 13 18 21 10 14 15 10 11
31 29 29 31 33 31 29 31 27 23 27 24 29 22 29 15 21 45 44 36 36 41 36 30 26 23 19 16 13 8 6 9 5 4 6 9 14 13 10 12 14 16 18
29 29 28 28 30 31 31 25 21 24 24 24 28 32 24 24 17 46 47 38 38 36 33 30 24 19 17 14 12 9 6 4 2 4 5 2 10 14 15 16 11 8 6
28 29 29 29 28 29 30 27 25 22 20 23 23 28 30 27 36 37 42 34 31 31 28 24 20 18 16 11 11 9 7 4 4 6 11 14 17 21 19 17 17 13 9
30 30 30 29 29 28 27 25 26 21 17 19 18 23 15 23 20 16 31 37 33 29 28 23 20 18 13 12 10 8 6 5 7 10 12 15 17 19 19 15 13 15 14
31 31 31 32 28 26 22 22 23 22 20 15 14 15 13 15 13 18 20 29 37 34 27 22 19 16 16 14 10 8 7 8 10 10 12 16 16 19 15 8 10 11 12
31 33 34 34 28 25 22 20 17 19 20 14 9 9 9 21 16 16 13 20 28 32 25 22 18 18 18 15 10 4 5 8 9 12 15 16 15 16 12 11 8 10 9
29 34 29 28 24 21 20 18 16 15 12 15 10 5 10 16 16 11 24 14 18 21 19 19 24 18 12 8 4 5 11 10 10 12 14 15 12 17 14 14 10 9 7
28 31 15 22 23 20 15 15 15 17 18 14 14 2 9 9 23 31 36 26 16 14 18 20 16 11 9 5 5 11 12 11 13 14 15 17 12 14 14 11 8 7 4
27 24 14 17 16 9 8 9 16 15 9 19 22 10 9 11 15 24 35 28 27 16 14 15 12 10 8 7 9 14 14 17 21 19 13 12 13 13 13 10 10 8 12
25 22 14 14 11 6 1 5 4 12 14 20 22 22 11 19 15 28 36 37 41 19 16 15 15 13 13 12 12 15 12 15 18 21 17 13 11 9 10 14 16 7 15
26 21 12 10 9 7 5 6 8 7 9 13 23 23 22 23 13 34 34 37 25 25 23 17 16 16 16 14 16 12 10 17 15 17 17 10 11 12 13 13 11 9 14
26 14 10 9 9 9 8 8 8 8 4 12 15 19 24 24 8 32 35 30 26 26 20 19 21 22 21 18 11 9 13 20 18 17 16 11 12 14 14 12 5 1 18
24 22 10 6 6 8 7 6 5 7 6 8 18 15 16 10 7 18 29 24 24 27 28 21 24 23 21 17 15 16 17 22 20 19 18 12 12 15 16 13 6 7 11
22 23 23 8 5 7 11 9 8 7 6 10 14 17 14 13 14 17 20 21 23 22 24 29 29 25 20 17 18 22 24 23 22 23 15 13 13 14 13 6 14 14 25
20 21 20 17 12 8 7 5 5 4 5 10 14 20 13 12 13 13 16 15 17 20 27 30 26 23 19 16 16 21 23 19 17 15 13 12 11 12 8 12 23 24 25
23 23 22 21 20 22 7 5 6 6 10 12 15 19 15 9 6 6 8 10 12 9 9 21 21 17 14 16 18 20 23 23 19 16 11 12 12 8 9 23 25 23 22
26 24 23 22 23 23 20 8 8 10 11 11 15 17 22 19 17 14 8 8 14 13 11 10 12 14 16 15 17 21 15 8 11 10 9 11 13 13 11 23 26 24 26
30 27 25 24 23 23 22 22 7 7 13 13 13 17 18 19 21 23 26 22 16 21 20 20 22 24 26 28 26 27 22 14 13 12 12 12 16 21 20 19 25 26 26
30 29 27 26 25 25 24 22 20 20 10 12 15 17 16 16 16 24 27 25 30 28 23 23 24 28 28 26 25 25 21 14 14 12 13 13 15 22 19 24 26 28 31
Wind_Direction
272 280 284 289 299 304 303 314 320 321 307 285 271 259 254 259 241 216 194 192 0 282 264 209 198 195 186 191 200 215 215 220 217 255 259 274 285 282 274 287 295 305 312
356 354 331 305 299 302 304 310 317 324 306 270 257 253 246 233 215 204 220 263 342 310 226 239 216 222 214 217 220 221 214 223 222 238 260 265 279 293 299 294 297 306 311
336 337 334 331 329 334 324 312 314 314 314 278 266 250 238 218 209 208 224 195 134 223 235 227 224 216 215 205 211 211 218 238 243 234 250 271 283 299 304 297 286 313 320
312 310 307 306 309 316 317 316 318 309 313 292 263 248 234 209 196 175 160 161 154 214 228 223 218 215 216 215 212 203 203 206 204 229 255 287 327 348 20 348 315 315 320
303 302 300 298 295 295 296 305 313 315 300 301 275 250 233 215 200 182 173 202 223 240 227 217 220 210 189 183 171 165 162 167 158 140 320 307 317 316 338 328 329 331 325
297 294 295 295 293 290 287 284 290 301 309 293 282 239 239 226 211 213 177 207 219 228 206 189 164 160 160 160 170 179 213 234 242 228 261 283 291 291 300 318 338 333 326
295 294 293 293 291 291 287 293 284 284 293 303 280 254 248 235 234 209 205 198 205 193 166 159 158 159 157 157 154 162 181 189 212 250 257 268 277 279 301 310 314 315 303
297 294 294 292 288 286 286 282 276 281 285 297 285 277 252 292 297 250 207 205 175 162 160 152 147 151 157 149 140 145 181 215 225 254 280 306 288 299 317 306 301 291 286
300 298 295 293 293 287 279 272 282 288 292 296 286 275 268 267 274 281 188 175 158 157 163 161 155 150 155 157 157 158 174 193 198 253 271 275 297 306 309 297 291 280 276
296 295 293 289 287 287 289 293 278 271 262 278 285 269 253 229 253 281 156 153 153 157 161 163 166 162 162 169 155 161 177 201 211 243 268 283 295 302 303 294 286 255 221
298 295 289 283 277 275 276 285 264 255 279 285 300 285 206 214 273 247 152 160 154 152 161 165 172 169 183 170 166 184 194 212 243 261 285 297 295 299 309 298 279 250 215
298 291 285 280 273 272 269 273 278 243 237 273 293 305 237 194 224 229 152 158 167 165 168 174 185 190 196 196 190 199 214 232 252 281 295 292 291 302 313 297 286 229 222
298 291 286 281 267 265 259 257 258 271 216 232 271 318 218 171 214 219 183 154 162 165 174 187 197 178 170 170 165 185 231 250 269 275 280 285 282 305 301 268 247 237 250
298 296 290 302 273 261 245 241 242 245 219 201 242 322 288 191 185 204 196 154 109 153 171 168 162 165 169 173 179 293 306 300 285 275 274 280 279 294 282 280 247 252 240
307 307 314 315 304 283 241 228 231 231 212 207 222 15 354 246 177 212 192 187 192 172 141 144 157 177 196 223 299 321 313 296 269 267 261 267 282 290 282 280 264 247 138
311 316 333 322 329 317 239 220 237 233 218 217 206 217 316 287 252 197 191 203 216 217 181 168 171 199 230 268 307 303 300 286 267 252 245 239 278 278 283 268 264 251 153
311 314 337 334 341 346 293 250 239 211 225 226 199 208 281 314 273 204 197 204 210 218 206 198 198 213 245 265 276 278 284 300 309 250 226 252 265 258 262 282 289 261 153
315 316 310 325 329 310 280 253 243 243 194 221 220 215 232 291 262 201 198 190 185 195 195 205 206 213 227 249 255 265 304 306 304 220 220 236 251 248 261 273 297 268 154
322 309 318 309 307 302 291 268 250 252 260 195 187 209 226 263 232 194 190 174 175 178 184 207 220 232 238 238 250 283 298 294 293 230 228 232 245 245 263 271 295 180 153
326 330 307 325 299 295 287 270 265 275 241 182 171 164 207 202 193 164 184 187 187 189 206 204 214 222 219 231 255 272 281 288 293 231 238 231 256 256 259 253 192 152 166
328 332 334 290 278 257 271 272 274 257 200 158 155 177 201 183 145 152 169 173 176 183 187 198 205 211 219 236 267 275 273 274 287 249 232 241 261 256 271 220 166 155 137
347 345 346 351 312 269 255 252 253 215 173 153 153 168 175 123 115 134 166 161 164 188 199 196 202 213 231 245 264 272 274 269 253 228 239 263 260 257 255 157 149 148 143
0 355 354 355 356 343 246 215 184 196 189 174 184 187 196 197 156 133 153 189 194 199 178 199 203 208 224 244 263 284 283 262 243 248 261 276 258 229 164 149 149 150 150
9 6 4 359 359 358 359 234 190 197 192 189 187 182 198 206 213 218 204 216 233 230 221 222 233 238 239 251 273 287 280 260 232 251 279 260 262 202 162 156 156 156 158
11 11 9 4 4 3 1 6 12 196 190 196 186 197 199 200 204 207 218 219 236 230 236 240 248 254 260 266 265 260 265 257 264 272 258 257 249 193 181 193 174 170 167
13 13 10 6 7 7 7 7 7 7 1 206 201 196 198 203 208 214 213 214 227 233 225 228 242 255 260 256 256 256 239 240 262 257 255 241 207 173 174 183 178 168 165